Weather History for Houghton Lake, MI

Change the Weather History Date:

Thursday, December 19, 2013

  Actual Average Record
Temperature  
Mean Temperature 18 °F 23 °F  
Max Temperature 29 °F 29 °F 53 °F (1931)
Min Temperature 6 °F 16 °F -17 °F (1919)
Degree Days  
Heating Degree Days 47 42  
Month to date heating degree days 876 747  
Since 1 July heating degree days 2741 2630  
Moisture  
Dew Point 18 °F    
Average Humidity 87    
Maximum Humidity 100    
Minimum Humidity 74    
Precipitation  
Precipitation 0.02 in 0.05 in 0.35 in (1968)
Month to date precipitation 1.42 1.08  
Year to date precipitation 29.92 28.18  
Snow  
Snow 0.20 in 0.50 in 5.70 in (2008)
Month to date snowfall 11.6 9.7  
Since 1 July snowfall 15.4 18.8  
Snow Depth 8.00 in    
Sea Level Pressure  
Sea Level Pressure 29.94 in    
Wind  
Wind Speed 4 mph (NE)    
Max Wind Speed 14 mph    
Max Gust Speed 16 mph    
Visibility 9 miles    
Events Snow    
T = Trace of Precipitation, MM = Missing Value Source: NWS Daily Summary

Daily Weather History Graph

Daily Weather History Graph

Search for Another Location

Airport:

Trip Planner

Search our weather history database for the weather conditions in past years. The results will help you decide how hot, cold, wet, or windy it might be!

Date:

Astronomy

Dec. 19, 2013 Rise Set
Actual Time 8:10 AM EST 5:01 PM EST
Civil Twilight 7:37 AM EST 5:34 PM EST
Nautical Twilight 7:00 AM EST 6:11 PM EST
Astronomical Twilight 6:24 AM EST 6:46 PM EST
Moon 7:31 PM EST (12/19) 9:24 AM EST (12/19)
Length of Visible Light 9h 57m
Length of Day
8h 50m
Waning Gibbous, 95% of the Moon is Illuminated
Dec 19
Waning Gibbous
Dec 25
Last Quarter
Jan 1
New
Jan 7
First Quarter
Jan 15
Full

Hourly Weather History & Observations

Time (EST) Temp. Windchill Dew Point Humidity Pressure Visibility Wind Dir Wind Speed Gust Speed Precip Events Conditions
12:53 AM 18.0 °F 12.7 °F 10.9 °F 74% 29.78 in 10.0 mi South 3.5 mph - N/A   Clear
1:53 AM 14.0 °F - 9.0 °F 80% 29.78 in 10.0 mi Calm Calm - N/A   Clear
2:53 AM 10.0 °F - 8.1 °F 92% 29.79 in 10.0 mi Calm Calm - N/A   Clear
3:53 AM 9.0 °F - 7.0 °F 92% 29.81 in 10.0 mi Calm Calm - N/A   Clear
4:53 AM 10.0 °F - 7.0 °F 87% 29.82 in 10.0 mi Calm Calm - N/A   Clear
5:53 AM 7.0 °F - 5.0 °F 92% 29.83 in 10.0 mi Calm Calm - N/A   Clear
6:53 AM 7.0 °F - 3.9 °F 87% 29.85 in 10.0 mi Calm Calm - N/A   Clear
7:53 AM 8.1 °F 1.4 °F 6.1 °F 92% 29.87 in 10.0 mi NW 3.5 mph - N/A   Clear
8:53 AM 14.0 °F - 12.0 °F 92% 29.90 in 6.0 mi Calm Calm - N/A   Clear
9:53 AM 17.1 °F - 14.0 °F 88% 29.93 in 7.0 mi Calm Calm - N/A   Clear
10:53 AM 23.0 °F - 23.0 °F 100% 29.98 in 6.0 mi Calm Calm - N/A   Clear
11:23 AM 24.1 °F 17.0 °F 21.0 °F 88% 29.94 in 7.0 mi SW 5.8 mph - N/A   Mostly Cloudy
11:41 AM 24.1 °F 19.7 °F 21.0 °F 88% 29.94 in 7.0 mi West 3.5 mph - N/A   Overcast
11:53 AM 25.0 °F 20.7 °F 21.9 °F 88% 30.00 in 8.0 mi Variable 3.5 mph - N/A   Overcast
12:53 PM 28.9 °F 22.8 °F 23.0 °F 78% 30.01 in 10.0 mi North 5.8 mph - N/A   Overcast
1:53 PM 28.9 °F 20.4 °F 24.1 °F 82% 30.00 in 10.0 mi NNE 9.2 mph - N/A   Overcast
2:53 PM 28.9 °F 21.9 °F 24.1 °F 82% 30.02 in 10.0 mi North 6.9 mph - N/A   Overcast
3:53 PM 28.9 °F 25.2 °F 23.0 °F 78% 30.03 in 10.0 mi North 3.5 mph - N/A   Overcast
4:53 PM 28.9 °F 25.2 °F 23.0 °F 78% 30.04 in 10.0 mi NE 3.5 mph - N/A   Overcast
5:13 PM 28.0 °F - 24.1 °F 85% 29.98 in 10.0 mi Calm Calm - N/A   Overcast
5:53 PM 28.0 °F 22.8 °F 23.0 °F 81% 30.03 in 10.0 mi East 4.6 mph - N/A   Overcast
6:03 PM 28.0 °F 22.8 °F 23.0 °F 81% 29.96 in 10.0 mi ESE 4.6 mph - N/A   Overcast
6:53 PM 28.0 °F 24.2 °F 23.0 °F 81% 30.04 in 10.0 mi NE 3.5 mph - N/A   Overcast
7:53 PM 28.0 °F 22.8 °F 24.1 °F 85% 30.05 in 10.0 mi NNE 4.6 mph - N/A   Overcast
8:00 PM 28.0 °F 22.8 °F 24.1 °F 85% 29.99 in 10.0 mi NNE 4.6 mph - N/A   Overcast
8:46 PM 27.0 °F 18.7 °F 23.0 °F 85% 29.98 in 10.0 mi NE 8.1 mph - N/A   Overcast
8:53 PM 27.0 °F 19.5 °F 24.1 °F 89% 30.04 in 10.0 mi NE 6.9 mph - N/A   Overcast
9:53 PM 26.1 °F 16.8 °F 21.9 °F 84% 30.02 in 10.0 mi ENE 9.2 mph - N/A   Overcast
10:53 PM 25.0 °F 14.2 °F 21.0 °F 85% 30.00 in 10.0 mi ENE 11.5 mph - N/A   Overcast
11:30 PM 25.0 °F 15.5 °F 21.0 °F 85% 29.94 in 2.5 mi ENE 9.2 mph - 0.00 in Snow Light Snow
11:43 PM 24.1 °F 15.2 °F 21.0 °F 88% 29.93 in 1.5 mi ENE 8.1 mph - 0.01 in Snow Light Snow
11:53 PM 24.1 °F 14.4 °F 21.0 °F 88% 29.99 in 1.8 mi ENE 9.2 mph - 0.02 in Snow Light Snow